User: anonymous   Login
Location: Nebula Knoll Observatory
(43.6666°N, 71.0000°W)
Time: 03:43:57
(UTC-04:00)
Language:

Cosmos 1782 - Orbit

View from above orbital plane
View from above orbital plane
View from above satellite
View from above satellite

Ground track
Ground track

The orbit data is extracted from the following two-line orbital elements,

1 16986U 86074A   14302.63777782  .00004140  00000-0  30149-3 0  8877
2 16986 082.5082 335.2146 0012432 029.5189 330.6736 15.03481822526170
Epoch (UTC): 29 October 2014 15:18:24
Eccentricity: 0.0012432
inclination: 82.5082°
perigee height: 547 km
apogee height: 565 km
right ascension of ascending node: 335.2146°
argument of perigee: 29.5189°
revolutions per day: 15.03481822
mean anomaly at epoch: 330.6736°
orbit number at epoch: 52617

The dashed part of the orbit path shows where the satellite is in the earth's shadow,  

DLR